Regional Weather Roundup
Issued by NWS

Home | Current Version | Previous Version | Graphics & Text | Print | Product List | Glossary On
Versions: 1 2 3 4 5 6 7 8 9 10 11 12 13 14 15 16 17 18 19 20 21 22 23 24 25 26 27 28 29 30 31 32 33 34 35 36 37 38 39 40 41 42 43 44 45 46 47 48 49 50
000
ASUS45 KABQ 271201
RWRNM
WEATHER ROUNDUP FOR NEW MEXICO
NATIONAL WEATHER SERVICE ALBUQUERQUE NM
600 AM MDT WED AUG 27 2014

NOTE: "FAIR" MEANS FEW OR NO CLOUDS BELOW 12,000 FEET AGL WITH NO
       SIGNIFICANT WEATHER OR OBSTRUCTIONS TO VISION.

      THIS PRODUCT IS RELEASED AS TWO VERSIONS.  ONE VERSION NEAR
      THE TOP OF THE HOUR CONTAINING PRELIMINARY DATA FROM ALBUQUERQUE
      AND OTHER STATIONS.  A FINAL VERSION WITH ADDITIONAL DATA IS
      ISSUED ABOUT 10 MINUTES AFTER THE HOUR.

NMZ501-503-504-510>518-271300-
NORTHWEST PLATEAU/NORTHCENTRAL MOUNTAINS

CITY           SKY/WX    TMP DP  RH WIND       PRES   REMARKS
FARMINGTON     CLEAR     52  51  97 NE6       30.29S
6HR MIN TEMP:  52; 6HR MAX TEMP:  57;

LOS ALAMOS     CLOUDY    55  55 100 CALM      30.35S
SANTA FE       CLOUDY    58  56  93 S3        30.31R
6HR MIN TEMP:  57; 6HR MAX TEMP:  60; 6HR PCP:  0.16;

TAOS           CLOUDY    55  52  88 CALM      30.36R
ANGEL FIRE     CLOUDY    52  46  80 S3        30.40R

$$
NMZ402-403-502-505>509-271300-
WESTCENTRAL MOUNTAINS/SOUTHWEST MOUNTAINS

CITY           SKY/WX    TMP DP  RH WIND       PRES   REMARKS
GALLUP         PTCLDY    48  46  93 CALM      30.33S FOG
6HR MIN TEMP:  46; 6HR MAX TEMP:  56;

SILVER CITY    PTCLDY    59  57  94 N7        30.26S

$$
NMZ407-409-411-412-271300-
SOUTHERN DESERTS

CITY           SKY/WX    TMP DP  RH WIND       PRES   REMARKS
LORDSBURG      FAIR      61  61 100 CALM      30.19R
DEMING         CLEAR     63  59  87 NE6       30.19R
6HR MIN TEMP:  62; 6HR MAX TEMP:  70;

LAS CRUCES     PTCLDY    67  62  85 N5        30.21R
HOLLOMAN AFB   MOCLDY    65  63  94 N14G22    30.19R
ALAMOGORDO     MOCLDY    66  63  88 N14       30.21S
T OR C         CLOUDY    62  60  93 NE7       30.23R
6HR MIN TEMP:  62; 6HR MAX TEMP:  71; 6HR PCP:  0.43;


$$
NMZ519>523-271300-
CENTRAL VALLEYS/CENTRAL HIGHLANDS

CITY           SKY/WX    TMP DP  RH WIND       PRES   REMARKS
ALBUQUERQUE    MOCLDY    61  57  87 E3        30.29R
6HR MIN TEMP:  61; 6HR MAX TEMP:  68; 6HR PCP:  0.07;

DOUBLE EAGLE   PTCLDY    55  55 100 CALM      30.31R
CLINES CORNERS CLOUDY    56  53  90 W8        30.32S
6HR MIN TEMP:  55; 6HR MAX TEMP:  59; 6HR PCP:  0.18;

BELEN          FAIR      57  56  97 N5        30.28R
6HR MIN TEMP:  57; 6HR MAX TEMP:  63; 6HR PCP:  0.05;

SOCORRO        FAIR      59  58  97 CALM      30.25S
6HR MIN TEMP:  59; 6HR MAX TEMP:  63; 6HR PCP:  0.24;


$$
NMZ524>526-539-540-271300-
SOUTHCENTRAL MOUNTAINS

CITY           SKY/WX    TMP DP  RH WIND       PRES   REMARKS
RUIDOSO        NOT AVBL

$$
NMZ527>531-271300-
NORTHEAST HIGHLANDS/NORTHEAST PLAINS

CITY           SKY/WX    TMP DP  RH WIND       PRES   REMARKS
LAS VEGAS      CLOUDY    55  53  93 MISG      30.31S
6HR MIN TEMP:  55; 6HR MAX TEMP:  58; 6HR PCP:  0.12;

RATON          LGT RAIN  59  58  96 S9        30.24S
6HR MIN TEMP:  59; 6HR MAX TEMP:  60; 6HR PCP:  0.01;

CLAYTON        PTCLDY    63  60  90 SW7       30.22R FOG
6HR MIN TEMP:  63; 6HR MAX TEMP:  64;


$$
NMZ532>537-271300-
EASTCENTRAL PLAINS

CITY           SKY/WX    TMP DP  RH WIND       PRES   REMARKS
TUCUMCARI        N/A     68  63  84 W6        30.17R
6HR MIN TEMP:  67; 6HR MAX TEMP:  69;

CANNON AFB     MOCLDY    66  61  82 N7        30.19F
6HR MIN TEMP:  66; 6HR MAX TEMP:  69; 6HR PCP:  0.01;

CLOVIS AIRPORT   N/A     64  61  88 N5        30.22R

$$
NMZ028-029-538-271300-
SOUTHEAST PLAINS

CITY           SKY/WX    TMP DP  RH WIND       PRES   REMARKS
ROSWELL        MOCLDY    70  64  81 NW9       30.16R
6HR MIN TEMP:  68; 6HR MAX TEMP:  72;

CARLSBAD       MOCLDY    72  62  71 N6        30.11R
6HR MIN TEMP:  70; 6HR MAX TEMP:  74;

HOBBS          PTCLDY    70  63  78 CALM      30.14


$$



USA.gov is the U.S. government's official web portal to all federal, state and local government web resources and services.